Weather reports worldwide

Advertisment
Tain Range, United Kingdom (3062): temperature & dewpoint: 12.07.2019 06:00:00 - 18.07.2019 06:00:00 (BST)Tain Range, United Kingdom (3062): temperature -20cm & temperature -100cm: 12.07.2019 06:00:00 - 18.07.2019 06:00:00 (BST)Tain Range, United Kingdom (3062): wind speed: 12.07.2019 06:00:00 - 18.07.2019 06:00:00 (BST)Tain Range, United Kingdom (3062): wind direction: 12.07.2019 06:00:00 - 18.07.2019 06:00:00 (BST)Tain Range, United Kingdom (3062): reduced air pressure: 12.07.2019 06:00:00 - 18.07.2019 06:00:00 (BST)Tain Range, United Kingdom (3062): visibility: 12.07.2019 06:00:00 - 18.07.2019 06:00:00 (BST)Tain Range, United Kingdom (3062): precipitation: 12.07.2019 06:00:00 - 18.07.2019 06:00:00 (BST)
Date & Time tt [°C] td [°C] tt -20cm [°C] tt -100cm [°C] ff [km/h] ff [kn] dd ppp [hPa] vv [km] rr [mm]
18.07.2019 06:00:00 11,0 9,6 - - 9 5 SW 1001,5 45 0,0
18.07.2019 05:00:00 9,4 8,5 - - 5 3 S 1001,6 45 0,0
18.07.2019 04:00:00 11,2 9,7 - - 2 1 SSE 1002,0 50 0,0
18.07.2019 03:00:00 10,3 9,3 - - 9 5 SW 1002,4 50 0,0
18.07.2019 02:00:00 11,2 9,4 - - 8 4 S 1002,5 45 0,0
18.07.2019 01:00:00 13,4 10,8 - - 13 7 SW 1002,6 50 0,0
18.07.2019 00:00:00 13,9 12,1 - - 8 4 W 1002,8 50 0,0
17.07.2019 23:00:00 14,0 12,2 - - 11 6 NW 1002,9 40 0,0
17.07.2019 22:00:00 15,2 12,5 - - 15 8 WNW 1002,8 45 0,0
17.07.2019 21:00:00 17,0 13,6 - - 9 5 SW 1002,4 50 0,0
17.07.2019 20:00:00 17,4 13,3 - - 9 5 SW 1002,3 45 0,0
17.07.2019 19:00:00 17,0 13,4 - - 11 6 SW 1002,7 45 0,0
17.07.2019 18:00:00 18,0 13,2 - - 5 3 S 1002,9 40 0,0
17.07.2019 17:00:00 17,4 13,7 - - 11 6 S 1003,4 40 0,0
17.07.2019 16:00:00 16,8 13,5 - - 15 8 S 1004,2 45 0,0
17.07.2019 15:00:00 17,2 13,5 - - 13 7 S 1004,7 28 0,0
17.07.2019 14:00:00 17,1 15,1 - - 11 6 SSE 1005,3 35 0,0
17.07.2019 13:00:00 16,2 14,2 - - 16 9 S 1006,0 18 0,0
17.07.2019 12:00:00 16,3 14,2 - - 13 7 SSW 1006,4 15 0,0
17.07.2019 11:00:00 17,7 13,1 - - 15 8 SSW 1006,7 35 0,0
17.07.2019 10:00:00 17,7 13,7 15,7 13,4 18 10 S 1007,1 30 0,0
17.07.2019 09:00:00 16,7 13,7 - - 8 4 SSE 1007,8 40 0,0
17.07.2019 08:00:00 15,8 13,9 - - 8 4 SSE 1008,4 45 0,0
17.07.2019 07:00:00 14,0 13,9 - - 2 1 N 1009,1 10 0,0
17.07.2019 06:00:00 12,9 12,8 - - 4 2 SE 1009,8 6 0,0
17.07.2019 05:00:00 12,4 12,3 - - 4 2 W 1010,6 4,5 0,0
17.07.2019 04:00:00 12,5 12,4 - - 4 2 W 1011,3 6 0,0
17.07.2019 03:00:00 11,9 11,8 - - 4 2 WNW 1011,9 9 0,0
17.07.2019 02:00:00 11,4 11,3 - - 9 5 W 1012,8 4,5 0,0
17.07.2019 01:00:00 11,2 10,9 - - 4 2 NNE 1013,3 0,4 0,0
17.07.2019 00:00:00 11,4 11,1 - - 5 3 N 1013,8 4,4 0,0
16.07.2019 23:00:00 12,2 11,5 - - 5 3 N 1014,2 3,7 0,0
16.07.2019 22:00:00 14,3 12,9 - - 9 5 NNE 1014,4 15 0,0
16.07.2019 21:00:00 14,5 12,5 - - 8 4 NE 1014,6 29 0,0
16.07.2019 20:00:00 16,0 13,0 - - 13 7 E 1014,8 35 0,0
16.07.2019 19:00:00 16,3 13,4 - - 18 10 E 1014,7 45 0,0
16.07.2019 18:00:00 18,5 15,6 - - 21 11 E 1014,3 35 0,0
16.07.2019 17:00:00 19,4 14,1 - - 13 7 NE 1014,5 40 0,0
16.07.2019 16:00:00 20,7 14,4 - - 9 5 N 1014,9 40 0,0
16.07.2019 15:00:00 19,5 14,7 - - 16 9 WNW 1015,1 15 0,0
16.07.2019 14:00:00 21,3 14,5 - - 8 4 NW 1015,0 30 0,0
16.07.2019 13:00:00 20,5 14,5 - - 4 2 ESE 1015,3 4,0 0,0
16.07.2019 12:00:00 19,0 14,6 - - 5 3 W 1015,4 40 0,0
16.07.2019 11:00:00 18,1 13,8 - - 9 5 S 1015,6 50 0,0
16.07.2019 10:00:00 16,8 13,2 15,7 13,2 9 5 S 1016,1 45 -
16.07.2019 09:00:00 14,1 12,8 - - 8 4 S 1016,4 45 0,0
16.07.2019 08:00:00 13,9 12,5 - - 4 2 SE 1016,5 50 0,0
16.07.2019 07:00:00 12,3 12,0 - - 9 5 SW 1017,1 35 0,0
16.07.2019 06:00:00 11,7 11,5 - - 4 2 S 1017,0 17 0,0
16.07.2019 05:00:00 10,8 10,4 - - 5 3 SSW 1017,4 0,9 0,0
16.07.2019 04:00:00 11,6 11,1 - - 8 4 SW 1017,8 40 0,0
16.07.2019 03:00:00 12,2 11,6 - - 4 2 WSW 1018,2 28 0,0
16.07.2019 02:00:00 12,6 12,0 - - 4 2 WSW 1018,7 50 0,0
16.07.2019 01:00:00 12,7 12,0 - - 8 4 NE 1018,9 45 0,0
16.07.2019 00:00:00 13,1 12,1 - - 2 1 NE 1019,1 50 0,0
15.07.2019 23:00:00 13,2 11,9 - - 5 3 ENE 1019,5 50 0,0
15.07.2019 22:00:00 13,4 12,1 - - 5 3 NNE 1019,6 45 0,0
15.07.2019 21:00:00 13,4 11,9 - - 13 7 N 1019,6 40 0,0
15.07.2019 20:00:00 14,1 11,9 - - 13 7 NNE 1019,6 45 0,0
15.07.2019 19:00:00 14,5 12,1 - - 15 8 NE 1019,7 50 0,0
15.07.2019 18:00:00 15,4 12,1 - - 15 8 ENE 1019,9 45 0,0
15.07.2019 17:00:00 16,2 12,1 - - 18 10 E 1020,1 45 0,0
15.07.2019 16:00:00 16,8 12,7 - - 18 10 E 1020,4 35 0,0
15.07.2019 15:00:00 17,0 12,9 - - 16 9 E 1020,7 35 0,0
15.07.2019 14:00:00 17,5 13,4 - - 15 8 E 1021,0 29 0,0
15.07.2019 13:00:00 17,1 12,0 - - 11 6 E 1021,2 40 0,0
15.07.2019 12:00:00 16,7 12,5 - - 8 4 SE 1021,5 30 0,0
15.07.2019 11:00:00 16,1 12,1 - - 4 2 S 1021,9 35 0,0
15.07.2019 10:00:00 14,3 11,6 15,0 13,0 9 5 SSE 1022,5 30 0,0
15.07.2019 09:00:00 13,1 10,9 - - 8 4 S 1022,8 45 0,0
15.07.2019 08:00:00 12,4 10,4 - - 8 4 SSW 1023,1 45 0,0
15.07.2019 07:00:00 12,1 10,7 - - 4 2 S 1023,2 35 0,0
15.07.2019 06:00:00 11,0 10,8 - - 2 1 SE 1023,5 40 0,0
15.07.2019 05:00:00 10,1 10,0 - - 2 1 ESE 1023,9 45 0,0
15.07.2019 04:00:00 8,7 8,6 - - 2 1 SSE 1024,2 15 0,2
15.07.2019 03:00:00 9,5 9,3 - - 2 1 SE 1024,6 22 0,0
15.07.2019 02:00:00 9,1 8,9 - - 2 1 SE 1024,9 30 0,0
15.07.2019 01:00:00 8,8 8,4 - - 4 2 WNW 1025,0 1,1 0,0
15.07.2019 00:00:00 9,8 9,2 - - 8 4 E 1025,0 25 0,0
14.07.2019 23:00:00 10,8 9,9 - - 9 5 E 1024,9 35 0,2
14.07.2019 22:00:00 12,6 10,7 - - 9 5 ENE 1024,8 50 0,0
14.07.2019 21:00:00 15,5 9,4 - - 5 3 E 1024,7 50 0,0
14.07.2019 20:00:00 16,0 9,7 - - 11 6 SSE 1024,9 50 0,0
14.07.2019 19:00:00 16,3 9,7 - - 13 7 SSE 1024,7 50 0,0
14.07.2019 18:00:00 16,7 9,9 - - 15 8 SSE 1025,0 40 0,2
14.07.2019 17:00:00 17,2 9,8 - - 11 6 E 1025,2 40 0,0
14.07.2019 16:00:00 17,2 9,9 - - 5 3 NNE 1025,7 40 0,0
14.07.2019 15:00:00 16,2 9,7 - - 5 3 W 1026,1 45 0,2
14.07.2019 14:00:00 15,1 9,3 - - 11 6 WNW 1026,4 40 0,0
14.07.2019 13:00:00 14,9 9,5 - - 9 5 WNW 1026,4 50 0,0
14.07.2019 12:00:00 14,9 10,4 - - 15 8 NW 1026,3 40 0,2
14.07.2019 11:00:00 14,6 9,9 - - 18 10 WNW 1026,2 50 0,0
14.07.2019 10:00:00 14,2 9,0 14,9 13,0 21 11 WNW 1026,3 50 0,0
14.07.2019 09:00:00 13,7 9,8 - - 22 12 WNW 1026,2 50 0,0
14.07.2019 08:00:00 13,1 10,5 - - 16 9 WNW 1026,1 50 0,2
14.07.2019 07:00:00 12,6 10,0 - - 13 7 WNW 1026,0 50 0,0
14.07.2019 06:00:00 12,2 10,3 - - 15 8 WNW 1025,7 45 0,0
14.07.2019 05:00:00 11,8 9,9 - - 15 8 WNW 1025,9 50 0,0
14.07.2019 04:00:00 10,6 9,2 - - 13 7 WNW 1025,8 40 0,2
14.07.2019 03:00:00 11,4 9,6 - - 16 9 WNW 1026,1 40 0,0
14.07.2019 02:00:00 11,7 10,1 - - 18 10 WNW 1025,9 45 0,0
14.07.2019 01:00:00 11,0 9,2 - - 13 7 NW 1025,9 50 0,0
14.07.2019 00:00:00 11,5 9,5 - - 16 9 NW 1025,5 50 0,0
13.07.2019 23:00:00 12,6 10,1 - - 21 11 NW 1025,4 50 0,2
13.07.2019 22:00:00 13,8 10,8 - - 18 10 NW 1025,3 50 0,0
13.07.2019 21:00:00 14,1 10,7 - - 22 12 WNW 1025,0 50 0,0
13.07.2019 20:00:00 14,6 11,3 - - 16 9 WNW 1024,9 50 0,2
13.07.2019 19:00:00 14,6 11,9 - - 24 13 WNW 1024,7 30 0,0
13.07.2019 18:00:00 15,7 10,9 - - 28 15 WNW 1024,3 45 0,0
13.07.2019 17:00:00 16,1 11,9 - - 16 9 NW 1024,0 50 0,0
13.07.2019 16:00:00 16,2 13,1 - - 18 10 WNW 1023,8 50 0,2
13.07.2019 15:00:00 15,0 11,5 - - 29 16 WNW 1023,7 50 0,0
13.07.2019 14:00:00 16,7 11,1 - - 22 12 WNW 1023,3 50 0,0
13.07.2019 13:00:00 16,0 11,1 - - 21 11 WNW 1023,2 40 0,2
13.07.2019 12:00:00 16,7 11,3 - - 26 14 WNW 1023,0 24 0,0
13.07.2019 11:00:00 15,2 12,3 - - 21 11 NW 1023,0 45 0,0
13.07.2019 10:00:00 14,8 13,3 15,0 12,9 16 9 WNW 1022,8 50 0,2
13.07.2019 09:00:00 15,1 12,7 - - 16 9 W 1022,4 45 0,0
13.07.2019 08:00:00 14,7 12,5 - - 21 11 WNW 1022,1 30 0,0
13.07.2019 07:00:00 13,9 12,9 - - 21 11 WNW 1021,8 50 0,2
13.07.2019 06:00:00 14,0 12,8 - - 24 13 WNW 1021,1 50 0,0
13.07.2019 05:00:00 13,9 12,7 - - 22 12 NW 1020,9 45 0,0
13.07.2019 04:00:00 14,0 12,9 - - 9 5 W 1021,1 45 0,2
13.07.2019 03:00:00 13,9 12,9 - - 11 6 W 1020,9 45 0,0
13.07.2019 02:00:00 13,9 13,1 - - 16 9 NW 1020,6 40 0,0
13.07.2019 01:00:00 12,8 12,3 - - 2 1 W 1020,7 10 0,0
13.07.2019 00:00:00 12,8 12,2 - - 2 1 SSW 1020,6 10 0,2
12.07.2019 23:00:00 12,9 12,2 - - 4 2 SSE 1020,2 14 0,0
12.07.2019 22:00:00 12,9 12,0 - - 4 2 S 1020,0 16 0,0
12.07.2019 21:00:00 13,0 11,9 - - 4 2 ENE 1019,6 6 0,2
12.07.2019 20:00:00 13,2 12,3 - - 5 3 ENE 1019,0 16 0,0
12.07.2019 19:00:00 13,2 12,4 - - 9 5 E 1018,5 11 0,0
12.07.2019 18:00:00 13,5 12,2 - - 11 6 E 1018,2 7 0,2
12.07.2019 17:00:00 14,2 12,5 - - 11 6 ESE 1017,9 30 0,0
12.07.2019 16:00:00 14,2 12,8 - - 11 6 E 1017,4 30 0,2
12.07.2019 15:00:00 14,2 13,0 - - 11 6 ESE 1017,0 14 0,0
12.07.2019 14:00:00 14,0 13,2 - - 11 6 E 1016,6 3,4 0,0
12.07.2019 13:00:00 14,0 13,4 - - 8 4 E 1016,4 7 0,2
12.07.2019 12:00:00 13,4 12,8 - - 9 5 ENE 1016,0 3,6 0,0
12.07.2019 11:00:00 13,3 12,9 - - 9 5 ENE 1015,3 3,2 0,0
12.07.2019 10:00:00 12,9 12,5 15,0 12,7 9 5 E 1015,1 2,4 0,2
12.07.2019 09:00:00 12,8 12,4 - - 11 6 E 1014,4 23 0,0
12.07.2019 08:00:00 13,0 12,6 - - 13 7 E 1013,6 13 0,2
12.07.2019 07:00:00 13,8 13,6 - - 8 4 N 1013,0 3,5 0,0
12.07.2019 06:00:00 13,3 13,1 - - 4 2 N 1012,6 4,1 0,0

tt = temperature
td = dewpoint
tt -20cm = temperature -20cm
tt -100cm = temperature -100cm
ff = wind speed
dd = wind direction
ppp = reduced air pressure
vv = visibility
rr = precipitation

Next stations